sat.trackr.live / text

‹ back to catalog

STARLINK-34360

NORAD 64304 · 2025-123P

PAYLOAD ACTIVE UNKNOWN

§ Identity

Operator
Country
US
Launch date
2025-06-08
Launch site
AFWTR
Launch vehicle
Mass (kg)
RCS (m²)

Purposes: comms

External: N2YO · Heavens-Above · Gunter

§ Orbital elements

Epoch: 2026-05-25T01:10:23.556000Z

Period
96.12 min
Inclination
70.0061°
Eccentricity
0.0001717
Mean motion
14.98175163 rev/d
Perigee alt
571.3 km
Apogee alt
573.7 km
Semi-major
6,950.7 km
B*
-5.2057e-3
RAAN
2.0364°
Arg perigee
73.3373°
Mean anomaly
286.7974°
Rev number
5,305

§ Raw data

STARLINK-343601 64304U 25123P   26145.04888375 -.00061414  00000+0 -52057-2 0  99992 64304  70.0061   2.0364 0001717  73.3373 286.7974 14.98175163 53051

JSON: /api/v1/satellites/64304 · /tle

For live sub-satellite position, see the globe view (requires WebGL).

§ Visibility from observer

Set your observer location to see the next 7 days of passes ≥ 10°. The values pass through the URL so the page stays shareable.

No JS? Fill the form by hand. The geolocation button needs JavaScript.